Regional Weather Roundup
Issued by NWS

Home | Current Version | Previous Version | Graphics & Text | Print | Product List | Glossary On
Versions: 1 2 3 4 5 6 7 8 9 10 11 12 13 14 15 16 17 18 19 20 21 22 23 24 25 26 27 28 29 30 31 32 33 34 35 36 37 38 39 40 41 42 43 44 45 46 47 48 49 50
948
ASUS43 KDMX 022301
RWRIA

WEATHER ROUNDUP FOR IOWA
NATIONAL WEATHER SERVICE DES MOINES IA
500 PM CST FRI DEC 02 2016

NOTE: "FAIR" INDICATES FEW OR NO CLOUDS BELOW 12,000 FEET WITH NO
SIGNIFICANT WEATHER AND/OR OBSTRUCTIONS TO VISIBILITY.

* - THESE STATIONS ARE NOT NWS STATIONS...THUS NOT UNDER NWS
QUALITY CONTROL.  THEY ALSO DO NOT REPORT WEATHER SUCH
AS PRECIPITATION OR FOG.

IAZ001>003-012>014-020>022-031>034-043>046-030000-
   NORTHWEST IOWA

CITY           SKY/WX    TMP DP  RH WIND       PRES   REMARKS
CARROLL *      CLOUDY    36  34  93 CALM      30.28S
CHEROKEE *     CLOUDY    34  30  85 N5        30.29R WCI  30
DENISON *      CLOUDY    36  32  87 CALM      30.27S
LE MARS *      CLOUDY    36  30  80 NW5       30.31R WCI  32
ORANGE CITY *  CLOUDY    32  28  86 CALM      30.28S
SHELDON *      CLOUDY    32  30  93 NW8       30.26F WCI  25
SIOUX CITY     CLOUDY    37  31  78 NW12      30.30S WCI  29
SPENCER        CLOUDY    32  26  78 NW12      30.28F WCI  23
STORM LAKE *   CLOUDY    34  28  80 NW5       30.27S WCI  30
$$

IAZ055>058-069>071-079>083-090>094-030000-
   SOUTHWEST IOWA

CITY           SKY/WX    TMP DP  RH WIND       PRES   REMARKS
ATLANTIC *     CLOUDY    37  30  75 NW6       30.29S WCI  33
AUDUBON *      CLOUDY    37  30  75 CALM      30.29S
CLARINDA *       N/A     39  30  70 N8        30.32R WCI  34
COUNCIL BLFS * CLOUDY    36  30  80 N5        30.30R WCI  32
CRESTON *      CLOUDY    37  30  75 N9        30.29S WCI  31
HARLAN  *      CLOUDY    36  32  87 W5        30.32S WCI  32
LAMONI         CLEAR     37  28  70 NW7       30.27F WCI  32
RED OAK *      CLEAR     34  30  86 N7        30.31R WCI  28
SHENANDOAH *   PTCLDY    37  28  70 N3        30.31R
$$

IAZ047>049-059>061-072>074-084-030000-
   CENTRAL IOWA

CITY           SKY/WX    TMP DP  RH WIND       PRES   REMARKS
AMES           CLOUDY    36  32  85 NW6       30.29S WCI  31
ANKENY *       CLOUDY    36  36 100 N5        30.31S WCI  32
BOONE *        CLOUDY    36  30  80 NW7       30.28R WCI  30
CHARITON *       N/A     39  32  75 N5        30.28F
DES MOINES     CLOUDY    40  32  73 N9        30.29S WCI  34
GRINNELL*      CLOUDY    36  30  79 NW3       30.30R
KNOXVILLE *    CLOUDY    39  32  75 NW3       30.28S
MARSHALLTOWN   CLOUDY    34  29  82 NW6       30.29R WCI  29
NEWTON *       CLOUDY    36  32  87 N7        30.29R WCI  30
PELLA *        CLOUDY    38  32  78 NW3       30.31S
PERRY *        CLOUDY    36  35  97 N5        30.30S WCI  32
$$

IAZ004>006-015-016-023>025-035-036-030000-
   NORTH CENTRAL IOWA

CITY           SKY/WX    TMP DP  RH WIND       PRES   REMARKS
ALGONA *       CLOUDY    32  25  74 NW10      30.28F WCI  24
CLARION *      CLOUDY    32  28  86 NW10      30.28S WCI  24
ESTHERVILLE    CLOUDY    30  24  78 N6        30.28F WCI  24
FORT DODGE *   CLOUDY    34  25  69 N6        30.29R WCI  29
MASON CITY     CLOUDY    31  24  75 NW12      30.29F WCI  22
WEBSTER CITY * CLOUDY    34  30  86 N7        30.27R WCI  28
IOWA FALLS *   CLOUDY    34  30  84 N7        30.29R WCI  28
$$

IAZ007>011-017>019-026>030-037>042-050>054-066-030000-
   NORTHEAST IOWA

CITY           SKY/WX    TMP DP  RH WIND       PRES   REMARKS
CEDAR RAPIDS   CLOUDY    33  27  78 NW10      30.29R WCI  25
CHARLES CITY * CLOUDY    30  25  80 NW8       30.29F WCI  23
CLINTON *      CLOUDY    34  28  79 W13       30.28S WCI  25
DECORAH *      CLOUDY    30  23  74 W7        30.27R WCI  23
DUBUQUE        CLOUDY    32  25  75 NW10      30.26F WCI  24
MONTICELLO *   CLOUDY    34  25  69 NW10G17   30.28R WCI  26
OELWEIN *      CLOUDY    32  27  80 NW12      30.27F WCI  23
WATERLOO       CLOUDY    32  24  72 N9        30.28S WCI  24
$$

IAZ064-065-067-068-078-030000-
   EAST CENTRAL IOWA

CITY           SKY/WX    TMP DP  RH WIND       PRES   REMARKS
DAVENPORT      CLOUDY    35  27  72 NW9       30.29R WCI  28
IOWA CITY      CLOUDY    37  27  67 NW12      30.31R WCI  29
MUSCATINE *    CLOUDY    39  28  65 NW9       30.31R WCI  33
QUAD CITIES    CLOUDY    38  26  62 NW8       30.29R WCI  32
$$

IAZ062-063-075>077-085>089-095>099-030000-
   SOUTHEAST IOWA

CITY           SKY/WX    TMP DP  RH WIND       PRES   REMARKS
BURLINGTON     CLOUDY    39  32  76 NW6       30.29R WCI  35
FAIRFIELD *    CLOUDY    39  30  70 N5        30.29S
FORT MADISON * CLOUDY    39  34  81 N3        30.30R
KEOKUK *       CLOUDY    41  32  70 N6        30.29R
OSKALOOSA *    CLOUDY    38  31  77 N6        30.30R WCI  33
CENTERVILLE *  MOCLDY    36  30  80 CALM      30.29F
OTTUMWA        CLOUDY    39  30  70 N6        30.29S WCI  35
WASHINGTON *   CLOUDY    37  30  75 NW8       30.31R WCI  31
$$

ABBREVIATIONS USED IN REMARKS
   TC - TEMPERATURES IN CELSIUS
  WCI - WIND CHILL INDEX
   HX - HEAT INDEX
  VSB - VISIBILITY
$$





USA.gov is the U.S. government's official web portal to all federal, state and local government web resources and services.